Le nostre stazioni meteo in Italia

Pubblicità
Il mio iltempo24.it
Capo Frasca, Italia (16539): Temperatura & dewpoint: 04.04.2020 03:00:00 - 10.04.2020 03:00:00 (CEST)Capo Frasca, Italia (16539): velocità del vento: 04.04.2020 03:00:00 - 10.04.2020 03:00:00 (CEST)Capo Frasca, Italia (16539): direzione del vento: 04.04.2020 03:00:00 - 10.04.2020 03:00:00 (CEST)Capo Frasca, Italia (16539): reduced air pressure: 04.04.2020 03:00:00 - 10.04.2020 03:00:00 (CEST)Capo Frasca, Italia (16539): visibility: 04.04.2020 03:00:00 - 10.04.2020 03:00:00 (CEST)
Data & Tempo tt [°C] td [°C] ff [km/h] ff [kn] dd ppp [hPa] vv [km]
10.04.2020 03:00:00 - - - - - - -
10.04.2020 02:00:00 - - - - - - -
10.04.2020 01:00:00 - - - - - - -
10.04.2020 00:00:00 - - - - - - -
09.04.2020 23:00:00 - - - - - - -
09.04.2020 22:00:00 - - - - - - -
09.04.2020 21:00:00 - - - - - - -
09.04.2020 20:00:00 15,8 13,8 5 3 O 1022,2 25
09.04.2020 19:00:00 - - - - - - -
09.04.2020 18:00:00 - - - - - - -
09.04.2020 17:00:00 17,2 13,3 11 6 ONO 1022,0 25
09.04.2020 16:00:00 - - - - - - -
09.04.2020 15:00:00 - - - - - - -
09.04.2020 14:00:00 17,0 13,3 8 4 ONO 1022,6 25
09.04.2020 13:00:00 - - - - - - -
09.04.2020 12:00:00 - - - - - - -
09.04.2020 11:00:00 16,2 13,5 4 2 E 1023,0 20
09.04.2020 10:00:00 - - - - - - -
09.04.2020 09:00:00 - - - - - - -
09.04.2020 08:00:00 12,6 12,1 4 2 E 1022,5 20
09.04.2020 07:00:00 - - - - - - -
09.04.2020 06:00:00 - - - - - - -
09.04.2020 05:00:00 - - - - - - -
09.04.2020 04:00:00 - - - - - - -
09.04.2020 03:00:00 - - - - - - -
09.04.2020 02:00:00 - - - - - - -
09.04.2020 01:00:00 - - - - - - -
09.04.2020 00:00:00 - - - - - - -
08.04.2020 23:00:00 - - - - - - -
08.04.2020 22:00:00 - - - - - - -
08.04.2020 21:00:00 - - - - - - -
08.04.2020 20:00:00 15,8 14,0 5 3 OSO 1023,8 25
08.04.2020 19:00:00 - - - - - - -
08.04.2020 18:00:00 - - - - - - -
08.04.2020 17:00:00 17,6 14,9 13 7 O 1023,9 25
08.04.2020 16:00:00 - - - - - - -
08.04.2020 15:00:00 - - - - - - -
08.04.2020 14:00:00 17,4 11,9 9 5 NO 1025,3 25
08.04.2020 13:00:00 - - - - - - -
08.04.2020 12:00:00 - - - - - - -
08.04.2020 11:00:00 16,8 12,4 0 0 N 1025,5 20
08.04.2020 10:00:00 - - - - - - -
08.04.2020 09:00:00 - - - - - - -
08.04.2020 08:00:00 11,4 10,6 9 5 ENE 1025,6 10
08.04.2020 07:00:00 - - - - - - -
08.04.2020 06:00:00 - - - - - - -
08.04.2020 05:00:00 - - - - - - -
08.04.2020 04:00:00 - - - - - - -
08.04.2020 03:00:00 - - - - - - -
08.04.2020 02:00:00 - - - - - - -
08.04.2020 01:00:00 - - - - - - -
08.04.2020 00:00:00 - - - - - - -
07.04.2020 23:00:00 - - - - - - -
07.04.2020 22:00:00 - - - - - - -
07.04.2020 21:00:00 - - - - - - -
07.04.2020 20:00:00 16,0 14,2 8 4 O 1026,1 20
07.04.2020 19:00:00 - - - - - - -
07.04.2020 18:00:00 - - - - - - -
07.04.2020 17:00:00 17,0 14,1 11 6 O 1026,0 20
07.04.2020 16:00:00 - - - - - - -
07.04.2020 15:00:00 - - - - - - -
07.04.2020 14:00:00 17,0 13,1 16 9 O 1026,8 20
07.04.2020 13:00:00 - - - - - - -
07.04.2020 12:00:00 - - - - - - -
07.04.2020 11:00:00 17,2 11,0 5 3 S 1026,5 20
07.04.2020 10:00:00 - - - - - - -
07.04.2020 09:00:00 - - - - - - -
07.04.2020 08:00:00 10,6 10,1 11 6 E 1025,7 20
07.04.2020 07:00:00 - - - - - - -
07.04.2020 06:00:00 - - - - - - -
07.04.2020 05:00:00 - - - - - - -
07.04.2020 04:00:00 - - - - - - -
07.04.2020 03:00:00 - - - - - - -
07.04.2020 02:00:00 - - - - - - -
07.04.2020 01:00:00 - - - - - - -
07.04.2020 00:00:00 - - - - - - -
06.04.2020 23:00:00 - - - - - - -
06.04.2020 22:00:00 - - - - - - -
06.04.2020 21:00:00 - - - - - - -
06.04.2020 20:00:00 16,0 13,7 8 4 OSO 1024,3 25
06.04.2020 19:00:00 - - - - - - -
06.04.2020 18:00:00 - - - - - - -
06.04.2020 17:00:00 17,0 12,7 8 4 O 1023,7 25
06.04.2020 16:00:00 - - - - - - -
06.04.2020 15:00:00 - - - - - - -
06.04.2020 14:00:00 17,0 9,7 11 6 NO 1023,5 25
06.04.2020 13:00:00 - - - - - - -
06.04.2020 12:00:00 - - - - - - -
06.04.2020 11:00:00 16,0 10,5 2 1 E 1023,6 25
06.04.2020 10:00:00 - - - - - - -
06.04.2020 09:00:00 - - - - - - -
06.04.2020 08:00:00 10,4 10,1 11 6 E 1022,0 20
06.04.2020 07:00:00 - - - - - - -
06.04.2020 06:00:00 - - - - - - -
06.04.2020 05:00:00 - - - - - - -
06.04.2020 04:00:00 - - - - - - -
06.04.2020 03:00:00 - - - - - - -
06.04.2020 02:00:00 - - - - - - -
06.04.2020 01:00:00 - - - - - - -
06.04.2020 00:00:00 - - - - - - -
05.04.2020 23:00:00 - - - - - - -
05.04.2020 22:00:00 - - - - - - -
05.04.2020 21:00:00 - - - - - - -
05.04.2020 20:00:00 15,6 13,1 13 7 NO 1019,3 25
05.04.2020 19:00:00 - - - - - - -
05.04.2020 18:00:00 - - - - - - -
05.04.2020 17:00:00 17,0 12,3 18 10 ONO 1019,0 25
05.04.2020 16:00:00 - - - - - - -
05.04.2020 15:00:00 - - - - - - -
05.04.2020 14:00:00 17,2 11,0 13 7 ONO 1020,0 25
05.04.2020 13:00:00 - - - - - - -
05.04.2020 12:00:00 - - - - - - -
05.04.2020 11:00:00 15,6 10,2 13 7 N 1020,6 25
05.04.2020 10:00:00 - - - - - - -
05.04.2020 09:00:00 - - - - - - -
05.04.2020 08:00:00 10,6 9,8 8 4 ENE 1020,5 25
05.04.2020 07:00:00 - - - - - - -
05.04.2020 06:00:00 - - - - - - -
05.04.2020 05:00:00 - - - - - - -
05.04.2020 04:00:00 - - - - - - -
05.04.2020 03:00:00 - - - - - - -
05.04.2020 02:00:00 - - - - - - -
05.04.2020 01:00:00 - - - - - - -
05.04.2020 00:00:00 - - - - - - -
04.04.2020 23:00:00 - - - - - - -
04.04.2020 22:00:00 - - - - - - -
04.04.2020 21:00:00 - - - - - - -
04.04.2020 20:00:00 14,8 13,5 21 11 NNO 1017,5 25
04.04.2020 19:00:00 - - - - - - -
04.04.2020 18:00:00 - - - - - - -
04.04.2020 17:00:00 16,2 13,1 21 11 NO 1017,4 25
04.04.2020 16:00:00 - - - - - - -
04.04.2020 15:00:00 - - - - - - -
04.04.2020 14:00:00 16,2 12,2 16 9 NO 1018,3 25
04.04.2020 13:00:00 - - - - - - -
04.04.2020 12:00:00 - - - - - - -
04.04.2020 11:00:00 14,2 11,4 8 4 N 1018,2 25
04.04.2020 10:00:00 - - - - - - -
04.04.2020 09:00:00 - - - - - - -
04.04.2020 08:00:00 10,4 9,6 8 4 ENE 1016,6 20
04.04.2020 07:00:00 - - - - - - -
04.04.2020 06:00:00 - - - - - - -
04.04.2020 05:00:00 - - - - - - -
04.04.2020 04:00:00 - - - - - - -
04.04.2020 03:00:00 - - - - - - -

tt = Temperatura
td = dewpoint
ff = velocità del vento
dd = direzione del vento
ppp = reduced air pressure
vv = visibility

Stazioni seguenti

WeatherPro
AMSI
MeteoEarth